Time,TemperatureF,DewpointF,PressureIn,WindDirection,WindDirectionDegrees,WindSpeedMPH,WindSpeedGustMPH,Humidity,HourlyPrecipIn,Conditions,Clouds,dailyrainin,SolarRadiationWatts/m^2,SoftwareType,DateUTC
2018-04-22 00:02:00,48.3,34.6,30.24,ENE,78,0.0,1.0,59,0.00,,,0.00,0,Wunderground v.1.15,2018-04-22 05:02:00,
2018-04-22 00:07:00,48.3,34.6,30.24,ENE,78,0.0,2.0,59,0.00,,,0.00,0,Wunderground v.1.15,2018-04-22 05:07:00,
2018-04-22 00:12:00,48.2,35.0,30.24,East,83,0.0,0.0,60,0.00,,,0.00,0,Wunderground v.1.15,2018-04-22 05:12:00,
2018-04-22 00:18:00,48.2,35.0,30.23,East,81,0.0,1.0,60,0.00,,,0.00,0,Wunderground v.1.15,2018-04-22 05:18:00,
2018-04-22 00:24:00,48.2,35.0,30.23,East,93,7.0,7.0,60,0.00,,,0.00,0,Wunderground v.1.15,2018-04-22 05:24:00,
2018-04-22 00:30:00,48.6,34.9,30.23,East,82,6.0,6.0,59,0.00,,,0.00,0,Wunderground v.1.15,2018-04-22 05:30:00,
2018-04-22 00:36:00,48.7,34.6,30.23,ENE,67,0.0,7.0,58,0.00,,,0.00,0,Wunderground v.1.15,2018-04-22 05:36:00,
2018-04-22 00:41:00,48.8,34.7,30.23,ENE,74,4.0,4.0,58,0.00,,,0.00,0,Wunderground v.1.15,2018-04-22 05:41:00,
2018-04-22 00:47:00,48.8,34.7,30.24,ENE,63,0.0,6.0,58,0.00,,,0.00,0,Wunderground v.1.15,2018-04-22 05:47:00,
2018-04-22 00:52:00,48.8,34.7,30.24,ENE,60,4.0,4.0,58,0.00,,,0.00,0,Wunderground v.1.15,2018-04-22 05:52:00,
2018-04-22 00:57:00,48.8,35.1,30.24,East,90,5.0,6.0,59,0.00,,,0.00,0,Wunderground v.1.15,2018-04-22 05:57:00,
2018-04-22 01:02:00,48.7,35.0,30.24,ENE,77,5.0,8.0,59,0.00,,,0.00,0,Wunderground v.1.15,2018-04-22 06:02:00,
2018-04-22 01:08:00,48.7,35.0,30.24,ESE,109,7.0,8.0,59,0.00,,,0.00,0,Wunderground v.1.15,2018-04-22 06:08:00,
2018-04-22 01:14:00,48.7,35.4,30.24,East,93,3.0,5.0,60,0.00,,,0.00,0,Wunderground v.1.15,2018-04-22 06:14:00,
2018-04-22 01:20:00,48.6,35.3,30.24,ENE,63,5.0,5.0,60,0.00,,,0.00,0,Wunderground v.1.15,2018-04-22 06:20:00,
2018-04-22 01:26:00,48.6,35.7,30.23,East,80,1.0,7.0,61,0.00,,,0.00,0,Wunderground v.1.15,2018-04-22 06:26:00,
2018-04-22 01:32:00,48.5,35.7,30.23,East,89,3.0,3.0,61,0.00,,,0.00,0,Wunderground v.1.15,2018-04-22 06:32:00,
2018-04-22 01:38:00,48.4,35.6,30.23,ENE,75,8.0,8.0,61,0.00,,,0.00,0,Wunderground v.1.15,2018-04-22 06:38:00,
2018-04-22 01:43:00,48.4,35.6,30.23,East,82,6.0,7.0,61,0.00,,,0.00,0,Wunderground v.1.15,2018-04-22 06:43:00,
2018-04-22 01:49:00,48.3,35.5,30.23,East,85,5.0,7.0,61,0.00,,,0.00,0,Wunderground v.1.15,2018-04-22 06:49:00,
2018-04-22 01:54:00,48.2,35.8,30.23,East,86,7.0,7.0,62,0.00,,,0.00,0,Wunderground v.1.15,2018-04-22 06:54:00,
2018-04-22 02:00:00,48.0,35.6,30.23,East,90,6.0,6.0,62,0.00,,,0.00,0,Wunderground v.1.15,2018-04-22 07:00:00,
2018-04-22 02:06:00,47.9,35.5,30.22,East,80,0.0,9.0,62,0.00,,,0.00,0,Wunderground v.1.15,2018-04-22 07:06:00,
2018-04-22 02:10:00,47.8,35.4,30.22,East,83,3.0,8.0,62,0.00,,,0.00,0,Wunderground v.1.15,2018-04-22 07:10:00,
2018-04-22 02:16:00,47.7,35.7,30.22,East,92,3.0,9.0,63,0.00,,,0.00,0,Wunderground v.1.15,2018-04-22 07:16:00,
2018-04-22 02:21:00,47.6,35.6,30.22,ESE,103,5.0,8.0,63,0.00,,,0.00,0,Wunderground v.1.15,2018-04-22 07:21:00,
2018-04-22 02:26:00,47.5,35.5,30.21,East,90,5.0,10.0,63,0.00,,,0.00,0,Wunderground v.1.15,2018-04-22 07:26:00,